Norfolk, NE

8:18 PM CST on December 15, 2019 (GMT -0600)
Stefan Memorial

Weather History for KOFK - October, 2019

Change the Weather History Date:

Monday, October 7, 2019

  Actual Average Record
Temperature  
Mean Temperature 54 °F 55 °F  
Max Temperature 75 °F 68 °F 91 °F (1980)
Min Temperature 33 °F 42 °F 18 °F (2012)
Degree Days  
Heating Degree Days 11 11  
Month to date heating degree days 98 70  
Since 1 July heating degree days 128 212  
Cooling Degree Days 0 1  
Month to date cooling degree days 0 7  
Year to date cooling degree days 949 913  
Growing Degree Days 4 (Base 50)    
Moisture  
Dew Point 36 °F    
Average Humidity 57    
Maximum Humidity 89    
Minimum Humidity 25    
Precipitation  
Precipitation 0.00 in 0.07 in 2.11 in (1992)
Month to date precipitation 1.50 0.57  
Year to date precipitation 23.53 23.79  
Snow  
Snow 0.00 in 0.00 in - ()
Month to date snowfall 0.0 0.0  
Since 1 July snowfall 0.0 T  
Since 1 September snowfall 0.0 T  
Snow Depth 0.00 in    
Sea Level Pressure  
Sea Level Pressure 30.17 in    
Wind  
Wind Speed 10 mph (SSW)    
Max Wind Speed 23 mph    
Max Gust Speed 32 mph    
Visibility 10 miles    
Events      
T = Trace of Precipitation, MM = Missing Value Source: NWS Daily Summary

Daily Weather History Graph

Daily Weather History Graph

Search for Another Location

Airport or City:

Astronomy

Oct. 07, 2019 Rise Set
Actual Time 7:33 AM CDT 7:01 PM CDT
Civil Twilight 7:05 AM CDT 7:29 PM CDT
Nautical Twilight 6:32 AM CDT 8:01 PM CDT
Astronomical Twilight 6:00 AM CDT 8:34 PM CDT
Moon 4:30 PM CDT (10/7) 1:19 AM CDT (10/7)
Length of Visible Light 12h 24m
Length of Day
11h 28m
Waxing Gibbous, 69% of the Moon is Illuminated
Oct 7
Waxing Gibbous
Oct 13
Full
Oct 21
Last Quarter
Oct 27
New
Nov 4
First Quarter

Hourly Weather History & Observations

Time (CDT) Temp. Windchill Dew Point Humidity Pressure Visibility Wind Dir Wind Speed Gust Speed Precip Events Conditions
12:56 AM 39.9 °F - 33.1 °F 77% 30.25 in 10.0 mi Calm Calm - N/A   Clear
1:56 AM 39.9 °F - 34.0 °F 79% 30.25 in 10.0 mi Calm Calm - N/A   Clear
2:56 AM 36.0 °F - 32.0 °F 86% 30.26 in 10.0 mi Calm Calm - N/A   Clear
3:56 AM 37.0 °F - 33.1 °F 86% 30.25 in 10.0 mi Calm Calm - N/A   Clear
4:56 AM 37.0 °F 34.5 °F 33.1 °F 86% 30.25 in 10.0 mi WNW 3.5 mph - N/A   Clear
5:56 AM 37.0 °F - 32.0 °F 82% 30.26 in 10.0 mi Calm Calm - N/A   Clear
6:56 AM 34.0 °F - 30.0 °F 85% 30.27 in 10.0 mi Calm Calm - N/A   Clear
7:56 AM 35.1 °F - 32.0 °F 89% 30.28 in 10.0 mi Calm Calm - N/A   Clear
8:56 AM 43.0 °F - 39.9 °F 89% 30.27 in 10.0 mi Calm Calm - N/A   Clear
9:56 AM 51.1 °F - 42.1 °F 71% 30.27 in 10.0 mi East 3.5 mph - N/A   Clear
10:56 AM 61.0 °F - 45.0 °F 56% 30.25 in 10.0 mi South 5.8 mph - N/A   Clear
11:56 AM 66.9 °F - 37.0 °F 33% 30.21 in 10.0 mi South 8.1 mph - N/A   Clear
12:56 PM 71.1 °F - 37.9 °F 30% 30.19 in 10.0 mi SSW 15.0 mph 24.2 mph N/A   Clear
1:56 PM 73.9 °F - 37.9 °F 27% 30.14 in 10.0 mi SW 16.1 mph 25.3 mph N/A   Clear
2:56 PM 73.9 °F - 37.0 °F 26% 30.11 in 10.0 mi SW 17.3 mph 27.6 mph N/A   Clear
3:56 PM 75.0 °F - 37.9 °F 26% 30.09 in 10.0 mi SSW 16.1 mph - N/A   Clear
4:56 PM 73.9 °F - 36.0 °F 25% 30.07 in 10.0 mi South 20.7 mph 26.5 mph N/A   Clear
5:56 PM 71.1 °F - 37.0 °F 29% 30.06 in 10.0 mi South 13.8 mph 23.0 mph N/A   Clear
6:56 PM 66.0 °F - 37.0 °F 34% 30.07 in 10.0 mi South 10.4 mph - N/A   Clear
7:56 PM 63.0 °F - 37.0 °F 38% 30.06 in 10.0 mi South 11.5 mph - N/A   Clear
8:56 PM 61.0 °F - 37.9 °F 42% 30.06 in 10.0 mi South 16.1 mph - N/A   Clear
9:56 PM 59.0 °F - 37.9 °F 46% 30.05 in 10.0 mi South 19.6 mph 26.5 mph N/A   Clear
10:56 PM 57.9 °F - 37.9 °F 47% 30.04 in 10.0 mi South 19.6 mph 28.8 mph N/A   Clear
11:56 PM 57.0 °F - 37.9 °F 49% 30.02 in 10.0 mi South 18.4 mph - N/A   Clear